TimeCDT,TemperatureF,Dew PointF,Humidity,Sea Level PressureIn,VisibilityMPH,Wind Direction,Wind SpeedMPH,Gust SpeedMPH,PrecipitationIn,Events,Conditions,WindDirDegrees,DateUTC
12:55 AM,73.4,69.8,88,30.01,10.0,SE,3.5,-,N/A,,Clear,140,2013-10-04 05:55:00
1:55 AM,71.6,69.8,94,30.01,10.0,SE,3.5,-,N/A,,Clear,140,2013-10-04 06:55:00
2:55 AM,71.6,69.8,94,30.01,10.0,SE,4.6,-,N/A,,Clear,130,2013-10-04 07:55:00
3:15 AM,71.6,69.8,94,30.00,10.0,ESE,3.5,-,N/A,,Clear,120,2013-10-04 08:15:00
3:35 AM,71.6,69.8,94,30.00,10.0,ESE,3.5,-,N/A,,Clear,110,2013-10-04 08:35:00
3:55 AM,69.8,69.8,100,30.00,10.0,Calm,Calm,-,N/A,,Clear,0,2013-10-04 08:55:00
4:15 AM,69.8,69.8,100,30.00,10.0,ESE,3.5,-,N/A,,Clear,110,2013-10-04 09:15:00
4:35 AM,69.8,69.8,100,30.01,10.0,Calm,Calm,-,N/A,,Clear,0,2013-10-04 09:35:00
4:55 AM,69.8,68.0,94,30.01,10.0,Calm,Calm,-,N/A,,Clear,0,2013-10-04 09:55:00
5:15 AM,69.8,68.0,94,30.01,10.0,Calm,Calm,-,N/A,,Clear,0,2013-10-04 10:15:00
5:35 AM,69.8,68.0,94,30.01,9.0,Calm,Calm,-,N/A,,Clear,0,2013-10-04 10:35:00
5:55 AM,69.8,69.8,100,30.02,9.0,ESE,3.5,-,N/A,,Clear,110,2013-10-04 10:55:00
6:55 AM,69.8,69.8,100,30.03,10.0,East,3.5,-,N/A,,Partly Cloudy,100,2013-10-04 11:55:00
7:55 AM,69.8,69.8,100,30.04,10.0,Calm,Calm,-,N/A,,Partly Cloudy,0,2013-10-04 12:55:00
8:55 AM,75.2,71.6,89,30.05,10.0,SE,5.8,-,N/A,,Partly Cloudy,140,2013-10-04 13:55:00
9:55 AM,78.8,73.4,83,30.06,10.0,Variable,5.8,-,N/A,,Mostly Cloudy,0,2013-10-04 14:55:00
10:55 AM,78.8,73.4,83,30.06,10.0,SE,9.2,-,N/A,,Mostly Cloudy,140,2013-10-04 15:55:00
11:55 AM,78.8,71.6,78,30.06,10.0,SE,8.1,-,N/A,,Overcast,140,2013-10-04 16:55:00
12:55 PM,78.8,73.4,83,30.05,10.0,SE,5.8,-,N/A,,Overcast,140,2013-10-04 17:55:00
1:55 PM,80.6,73.4,79,30.02,10.0,SSE,9.2,-,N/A,,Overcast,160,2013-10-04 18:55:00
2:55 PM,86.0,73.4,66,29.99,10.0,Variable,5.8,-,N/A,,Mostly Cloudy,0,2013-10-04 19:55:00
3:55 PM,84.2,73.4,70,29.98,10.0,SSE,8.1,-,N/A,,Mostly Cloudy,160,2013-10-04 20:55:00
4:55 PM,84.2,71.6,66,29.98,9.0,SSE,4.6,-,N/A,,Mostly Cloudy,160,2013-10-04 21:55:00
5:55 PM,82.4,73.4,74,29.98,10.0,SE,4.6,-,N/A,,Mostly Cloudy,140,2013-10-04 22:55:00
6:55 PM,78.8,73.4,83,29.99,10.0,ESE,3.5,-,N/A,,Scattered Clouds,120,2013-10-04 23:55:00
7:55 PM,75.2,71.6,89,29.99,10.0,SE,3.5,-,N/A,,Scattered Clouds,130,2013-10-05 00:55:00
8:55 PM,73.4,71.6,94,30.00,10.0,Calm,Calm,-,N/A,,Partly Cloudy,0,2013-10-05 01:55:00
9:55 PM,75.2,71.6,89,30.00,10.0,Calm,Calm,-,N/A,,Partly Cloudy,0,2013-10-05 02:55:00
10:55 PM,75.2,71.6,89,30.01,10.0,SE,3.5,-,N/A,,Mostly Cloudy,130,2013-10-05 03:55:00
11:55 PM,75.2,71.6,89,30.02,10.0,Calm,Calm,-,N/A,,Mostly Cloudy,0,2013-10-05 04:55:00